Location: Lesignano de� Bagni
(44.6500°N, 10.3000°E)
Time: 15:17:40
(UTC+00:00)

Cosmos 2154 Rocket - Pass Details

Date: 03 March 2021
Orbit: 966 x 996 km, 82.9° (Epoch: 10 April)

Event Time Altitude Azimuth Distance (km) Brightness Sun altitude
Rises 17:33:14 0° 168° (SSE) 3,657 6.9 -5.1°
Reaches altitude 10° 17:35:49 10° 163° (SSE) 2,710 6.2 -5.5°
Maximum altitude 17:41:43 48° 91° (E) 1,249 4.2 -6.6°
Drops below altitude 10° 17:47:38 10° 19° (NNE) 2,717 6.1 -7.6°
Sets 17:50:13 0° 14° (NNE) 3,667 6.9 -8.1°
